TimeMST,TemperatureF,Dew PointF,Humidity,Sea Level PressureIn,VisibilityMPH,Wind Direction,Wind SpeedMPH,Gust SpeedMPH,PrecipitationIn,Events,Conditions,WindDirDegrees,DateUTC
12:55 AM,31.5,20.5,64,29.90,10.0,West,10.4,-,N/A,,Clear,260,2013-02-13 07:55:00
1:55 AM,31.8,19.9,62,29.88,10.0,WSW,11.5,-,N/A,,Clear,250,2013-02-13 08:55:00
2:55 AM,29.3,19.6,67,29.86,10.0,WSW,9.2,-,N/A,,Clear,250,2013-02-13 09:55:00
3:55 AM,29.1,19.8,68,29.85,10.0,SW,8.1,-,N/A,,Clear,230,2013-02-13 10:55:00
4:55 AM,29.8,20.8,69,29.85,10.0,WSW,9.2,-,N/A,,Clear,250,2013-02-13 11:55:00
5:55 AM,28.0,19.4,70,29.83,10.0,West,6.9,-,N/A,,Clear,280,2013-02-13 12:55:00
6:55 AM,33.4,21.9,63,29.82,10.0,West,9.2,-,N/A,,Mostly Cloudy,260,2013-02-13 13:55:00
7:55 AM,40.6,23.4,50,29.81,10.0,West,11.5,20.7,N/A,,Overcast,280,2013-02-13 14:55:00
8:55 AM,44.2,21.9,41,29.80,10.0,NW,19.6,23.0,N/A,,Overcast,310,2013-02-13 15:55:00
9:55 AM,46.9,23.0,39,29.78,10.0,NW,26.5,33.4,N/A,,Mostly Cloudy,320,2013-02-13 16:55:00
10:55 AM,47.5,23.0,38,29.78,10.0,NW,29.9,39.1,N/A,,Partly Cloudy,320,2013-02-13 17:55:00
11:55 AM,47.3,24.3,40,29.78,10.0,NW,31.1,39.1,N/A,,Mostly Cloudy,310,2013-02-13 18:55:00
12:55 PM,49.3,22.6,35,29.77,10.0,WNW,29.9,39.1,N/A,,Partly Cloudy,300,2013-02-13 19:55:00
1:55 PM,47.3,27.9,47,29.78,10.0,NNW,36.8,42.6,N/A,,Mostly Cloudy,330,2013-02-13 20:55:00
2:55 PM,43.5,25.2,48,29.81,10.0,NNW,31.1,42.6,N/A,,Mostly Cloudy,330,2013-02-13 21:55:00
3:55 PM,41.9,25.3,52,29.83,10.0,NW,28.8,36.8,N/A,,Clear,320,2013-02-13 22:55:00
4:55 PM,40.6,25.7,55,29.86,10.0,NW,23.0,32.2,N/A,,Clear,310,2013-02-13 23:55:00
5:55 PM,39.6,25.3,57,29.90,10.0,NW,23.0,-,N/A,,Partly Cloudy,320,2013-02-14 00:55:00
6:34 PM,37.4,26.6,65,29.94,10.0,North,27.6,35.7,N/A,Rain,Light Rain,350,2013-02-14 01:34:00
6:50 PM,33.8,28.4,81,29.94,10.0,North,16.1,-,N/A,,Scattered Clouds,360,2013-02-14 01:50:00
6:55 PM,33.4,29.3,85,29.94,10.0,North,13.8,-,0.00,,Mostly Cloudy,350,2013-02-14 01:55:00
7:55 PM,32.9,27.5,81,29.93,10.0,WNW,12.7,-,N/A,,Mostly Cloudy,290,2013-02-14 02:55:00
8:55 PM,36.3,26.4,67,29.93,10.0,NW,23.0,28.8,N/A,,Clear,320,2013-02-14 03:55:00
9:55 PM,36.3,23.7,60,29.94,10.0,NW,21.9,36.8,N/A,,Partly Cloudy,320,2013-02-14 04:55:00
10:55 PM,33.4,23.0,66,29.96,10.0,NW,21.9,-,N/A,,Clear,320,2013-02-14 05:55:00
11:55 PM,32.5,19.0,58,29.99,10.0,NW,23.0,-,N/A,,Clear,310,2013-02-14 06:55:00